Location: Fossil View Observatory
(30.3980°N, 99.3522°W)
Time: 19:43:06
(UTC-05:00)

ISS - Pass Details

Date: 26 February 2019
Orbit: 406 x 411 km, 51.6° (Epoch: 20 March)

Event Time Altitude Azimuth Distance (km) Brightness Sun altitude
Exits shadow 06:17:24 11° 318° (NW) 1,421 -1.5 -11.5°
Maximum altitude 06:17:55 11° 327° (NNW) 1,405 -1.4 -11.4°
Drops below altitude 10° 06:18:51 10° 344° (NNW) 1,460 -1.2 -11.2°
Sets 06:22:20 0° 23° (NNE) 2,324 0.3 -10.4°
